Other Public Products
Issued by NWS Grand Forks, ND

Home | Current Version | Previous Version | Graphics & Text | Print | Product List | Glossary On
Versions: 1 2 3 4 5 6 7 8 9 10 11 12 13 14 15 16 17 18 19 20 21 22 23 24 25 26 27 28 29 30 31 32 33 34 35 36 37 38 39 40 41 42 43 44 45 46 47 48 49 50
000
FPUS83 KFGF 242310
OPUFGF
PRAIRIE TO PINES WEATHER ROUNDUP
NATIONAL WEATHER SERVICE EASTERN NORTH DAKOTA/GRAND FORKS ND
600 PM CDT TUE MAY 24 2016

 **SATELLITE DATA USED TO AUGMENT SKY COVER AT AUTOMATED STATIONS**
 *****  WEATHER ACROSS EASTERN NORTH DAKOTA  *****

CITY           SKY/WX    TMP DP  RH WIND       PRES   REMARKS
GRAND FORKS    MOSUNNY   79  51  37 NE3       29.86S
GRAND FORKS AF SUNNY     77  47  35 VRB3      29.87F
GRAND CITY NWS   N/A     79 N/A N/A N1          N/A
BUXTON           N/A     80  50  34 N6          N/A
DEVILS LAKE    NOT AVBL
FARGO          SUNNY     84  40  21 NW6       29.84S
WAHPETON ARPT  CLEAR     84  41  21 N14       29.82S
$$

 *****  WEATHER ACROSS CENTRAL AND WESTERN NORTH DAKOTA  *****

CITY           SKY/WX    TMP DP  RH WIND       PRES   REMARKS
JAMESTOWN      NOT AVBL
BISMARCK       MOSUNNY   77  40  26 SE7       29.86F
MINOT          MOSUNNY   78  39  24 SW9       29.86F
MINOT AFB      SUNNY     74  40  28 SW9       29.86S
GARRISON         N/A     74  45  35 SE7       29.87F
WILLISTON      PTSUNNY   70  37  29 SW13      29.87S
DICKINSON      CLOUDY    67  40  37 VRB3      29.85F
HETTINGER      CLOUDY    73  43  33 E12G17    29.85F
$$

 *****  OTHER OBSERVATIONS NORTHEAST NORTH DAKOTA  *****

CITY           SKY/WX    TMP DP  RH WIND       PRES   REMARKS
WALHALLA       FAIR      73  52  46 SE9       29.86F
LANGDON        FAIR      77  41  27 W13       29.88F
CAVALIER       FAIR      73  50  43 S7        29.86F
GRAFTON        FAIR      75  52  43 SE3       29.88F
CANDO          NOT AVBL
FORT TOTTEN      N/A     78  46  31 E6        29.95S
ROLLA          FAIR      73  37  27 W14       29.89F
RUGBY          FAIR      73  37  27 SW10      29.87S
 ***** THE ABOVE OBSERVATIONS ARE NON NWS ARE NOT QUALITY
        CONTROLLED AND MAY MIS-REPORT RAIN FOR SNOW...
$$

 *****  OTHER OBSERVATIONS SOUTHEAST NORTH DAKOTA *****

CITY           SKY/WX    TMP DP  RH WIND       PRES   REMARKS
COOPERSTOWN    NOT AVBL
VALLEY CITY    FAIR      75  48  38 E3        29.90S
OAKES            N/A    N/A N/A N/A MISG        N/A
GWINNER        FAIR      82  46  28 N5        29.85R
SHEYENNE NWR     N/A     82  48  30 N7        29.95
BUFFALO          N/A     78  48  34 N5          N/A
WYNDMERE         N/A     86  37  17 W12         N/A
 ***** THE ABOVE OBSERVATIONS ARE NON NWS ARE NOT QUALITY
       CONTROLLED AND MAY MIS-REPORT RAIN FOR SNOW...
$$

  *****  WEATHER ACROSS NORTHERN MINNESOTA  *****

CITY           SKY/WX    TMP DP  RH WIND       PRES   REMARKS
FLAG ISLAND    SUNNY     70  48  46 N7        29.89S
WARROAD        SUNNY     70  55  60 E10       29.89S
ROSEAU         SUNNY     75  48  38 NW5       29.88S
HALLOCK        MOSUNNY   77  45  31 W3        29.86S
THF RVR FALLS  SUNNY     75  45  33 W7        29.89F
HALSTAD        NOT AVBL
FOSSTON        SUNNY     81  43  26 NW6       29.90R
BAUDETTE       SUNNY     75  46  35 N10       29.88S
WASKISH        SUNNY     75  52  43 MISG      29.88S
CROOKSTON      SUNNY     79  48  34 N5        29.87F
$$
  *****  WEATHER ACROSS CENTRAL AND WEST MINNESOTA  *****

CITY           SKY/WX    TMP DP  RH WIND       PRES   REMARKS
BEMIDJI        SUNNY     79  47  32 NW14      29.88S
PARK RAPIDS    SUNNY     80  46  30 W5        29.87S
WADENA         MOSUNNY   81  46  30 CALM      29.85F
DETROIT LAKES  SUNNY     79  45  29 W3        29.88S
MOORHEAD       SUNNY     82  45  26 N7        29.85R
FERGUS FALLS   MOSUNNY   82  52  34 NE5       29.80R
ELBOW LAKE     FAIR      84  43  23 SW10G17   29.84S
MORRIS MN      MOSUNNY   84  46  26 CALM      29.83S
STAPLES        MOSUNNY   79  45  29 NE5       29.86S
WHEATON        SUNNY     88  45  22 W7        29.84R
$$
  *****  WEATHER ELSEWHERE ACROSS MINNESOTA  *****

CITY           SKY/WX    TMP DP  RH WIND       PRES   REMARKS
DULUTH         MOSUNNY   66  57  72 E14       29.92R
INTRNTL FALLS  MOSUNNY   71  52  50 NE14      29.88R
ELY            CLOUDY    75  52  43 SE5       29.89S
CLOQUET        MOSUNNY   70  55  60 E9        29.90S
BRAINERD       MOSUNNY   78  49  35 SE5       29.88S
HIBBING        SUNNY     77  45  32 W7        29.88S
ALEXANDRIA     MOSUNNY   80  52  37 E8        29.87S
SAINT CLOUD    CLOUDY    76  58  53 S8        29.88S
MINNEAPOLIS    CLOUDY    86  50  28 NW5       29.88S
$$

  *****  WEATHER ACROSS SOUTH DAKOTA  *****

CITY           SKY/WX    TMP DP  RH WIND       PRES   REMARKS
SIOUX FALLS    MOSUNNY   83  49  30 CALM      29.85F
BROOKINGS      SUNNY     84  43  23 SW8       29.86F
WATERTOWN      SUNNY     83  43  24 NW3       29.86S
HURON          SUNNY     83  49  30 MISG      29.82F
SISSETON         N/A     86  40  19 W15       29.82S
ABERDEEN       SUNNY     84  48  28 NW8       29.83F
MITCHELL       SUNNY     85  45  24 S5        29.83F
PIERRE         SUNNY     80  47  31 E8        29.80F
MOBRIDGE       SUNNY     79  45  29 SE6       29.82F
RAPID CITY     CLOUDY    66  45  46 E7        29.83F
$$

  *****  SOME WEATHER IN NEARBY STATES *****

CITY           SKY/WX    TMP DP  RH WIND       PRES   REMARKS
GLASGOW MT     PTSUNNY   62  42  47 NW8       29.86F
GREAT FALLS MT PTSUNNY   61  34  36 N7        29.87S
CHEYENNE WY    CLOUDY    63  43  48 SE21G28   29.89F
SCOTTSBLUFF NE CLOUDY    73  47  39 SE18      29.79F
OMAHA NE       MOSUNNY   82  59  45 S7        29.86F
DES MOINES IA  PTSUNNY   84  59  42 SW7       29.88F
DAVENPORT IA   CLOUDY    85  56  37 S14       29.90F
CHICAGO IL     MOSUNNY   85  47  26 S14       29.91F
EAU CLAIRE WI  MOSUNNY   83  50  31 W10       29.89S
LA CROSSE WI   SUNNY     83  57  41 SE7       29.90F
$$

  *****  SOME NATIONAL WEATHER *****

CITY           SKY/WX    TMP DP  RH WIND       PRES   REMARKS
LA GUARDIA NY  CLOUDY    70  54  56 CALM      29.92R
RALEIGH NC     MOSUNNY   79  52  38 W7        30.08F
ATLANTA GA     MOSUNNY   83  51  33 W7        30.13R
NEW ORLEANS LA MOSUNNY   85  71  63 S15       30.05F HX  90
OKLAHOMA CITY  PTSUNNY   82  72  71 S17G26    29.87R
ALBUQUERQUE NM MOSUNNY   82  12   7 SW18      29.91F
SALT LAKE CITY CLOUDY    64  36  35 NW15G23   29.86R
LOS ANGELES CA MOSUNNY   65  53  65 W15       30.01F
BOISE ID       MOSUNNY   72  30  21 NW10G20   29.81F
SEATTLE WA     CLOUDY    64  48  56 W6        30.01F
$$

*** WEATHER ACROSS MANITOBA...SASKATCHEWAN AND ONTARIO ***
                ***ONTARIO***

CITY           SKY/WX    TMP DP  RH WIND       PRES   REMARKS
GERALDTON      PTSUNNY   55  41  58 E12       30.03S
THUNDER BAY    MOSUNNY   63  54  72 E7        29.99R
SIOUX LOOKOUT  TSTM      54  54 100 E10       29.95F
TORONTO        PTSUNNY   82  41  23 W15       29.93S
BIG TROUT LK   CLOUDY    48  37  66 E8        30.09S
PICKLE LAKE    PTSUNNY   55  41  58 SE13      30.02R
DRYDEN         CLOUDY    57  54  88 E8        29.95R
KENORA         MOSUNNY   68  46  45 E13       29.91S
$$
                *** MANITOBA***

CITY           SKY/WX    TMP DP  RH WIND       PRES   REMARKS
BRANDON        PTSUNNY   72  41  33 SW13G20   29.86S
DAUPHIN        LGT RAIN  61  54  77 N13       29.88F
ISLAND LAKE    MOSUNNY   54  41  62 SE12      30.01F
PILOT MOUND      N/A     73  39  29 W9G17       N/A
THE PAS        CLOUDY    54  43  66 E7        29.97S
THOMPSON       PTSUNNY   54  36  50 S6        30.02F
WINNIPEG       PTSUNNY   66  50  55 NW18G26   29.91R
LYNN LAKE      MOSUNNY   57  39  51 S9        29.96F
CHURCHILL      PTSUNNY   36  23  60 E9        30.15F
GILLAM         PTSUNNY   50  27  40 VRB2      30.09S
$$
                ***SASKATCHEWAN***

CITY           SKY/WX    TMP DP  RH WIND       PRES   REMARKS
ESTEVAN        PTSUNNY   70  37  30 SW15G22   29.85S
KINDERSLEY     PTSUNNY   54  48  82 NE14      29.86S
LLOYDMINSTER   PTSUNNY   59  46  63 SE10      29.88S
PRINCE ALBERT  DRIZZLE   54  46  76 NE12      29.91F
REGINA         PTSUNNY   61  41  48 SW15      29.82F
YORKTON        PTSUNNY   64  43  45 W8        29.84S   C1F1C2F2C3F3C4F4C5F5C6F6C7F7C8F8C9F9CaFaCbFbCcFcCdFdCe!


USA.gov is the U.S. government's official web portal to all federal, state and local government web resources and services.